Location: Allaines
(49.9632°N, 2.9458°E)
Time: 12:59:33
(UTC+00:00)

Cosmos 2154 Rocket - Visible Passes

Search period start: 06 August 2020 00:00
Search period end: 16 August 2020 00:00
Orbit: 967 x 996 km, 82.9° (Epoch: 05 August)

Date Brightness Start Highest point End Pass type
(mag) Time Alt. Az. Time Alt. Az. Time Alt. Az.
06 Aug 6.0 20:00:37 10° SW 20:06:16 34° WNW 20:11:58 10° N visible
07 Aug 7.7 03:23:00 10° NNE 03:24:54 11° NE 03:26:48 10° ENE visible
07 Aug 6.8 20:29:16 10° WSW 20:33:54 21° WNW 20:38:35 10° NNW visible
08 Aug 7.1 03:48:28 10° NNE 03:52:50 19° ENE 03:57:09 10° ESE visible
08 Aug 7.2 20:59:03 10° WNW 21:01:46 13° NW 21:04:29 10° NNW visible
10 Aug 7.6 02:59:20 10° NE 03:00:43 11° NE 03:02:06 10° ENE visible
10 Aug 6.9 20:04:58 10° WSW 20:09:44 22° WNW 20:14:35 10° NNW visible
11 Aug 7.0 03:24:29 10° NNE 03:28:40 18° ENE 03:32:50 10° E visible
11 Aug 7.3 20:34:35 10° W 20:37:35 14° NW 20:40:36 10° NNW visible
12 Aug 6.4 03:50:55 10° N 03:56:23 29° ENE 04:01:47 10° SE visible
13 Aug 7.5 02:36:08 10° NE 02:36:32 10° NE 02:36:57 10° NE visible
13 Aug 6.9 19:40:41 10° WSW 19:45:36 23° WNW 19:50:34 10° N visible
14 Aug 7.0 03:00:30 10° NNE 03:04:31 17° ENE 03:08:30 10° E visible
14 Aug 7.4 20:10:09 10° W 20:13:25 14° NW 20:16:42 10° NNW visible
15 Aug 6.4 03:26:53 10° N 03:32:14 27° ENE 03:37:33 10° ESE visible
